This is the latest recevied weather packets stored in our database for station/object KE0FIN. If no packets are shown the sender has not sent any weather packets the latest 10 day(s).
| Time | Temp. | Humidity | Pressure | Rain* | Wind** | Luminosity | Snow |
|---|---|---|---|---|---|---|---|
| 1778049010 | 7.22° C | 94% | 1067.2 hPa | 3.05 mm | - | 0 W/m² | - |
| 1778048708 | 7.22° C | 93% | 1067.2 hPa | 1.27 mm | - | 0 W/m² | - |
| 1778048405 | 7.22° C | 93% | 1067.3 hPa | 0 mm | - | 0 W/m² | - |
| 1778048101 | 7.22° C | 92% | 1067.3 hPa | 0 mm | - | 0 W/m² | - |
| 1778047799 | 7.22° C | 92% | 1067.3 hPa | 1.78 mm | - | 0 W/m² | - |
| 1778047497 | 7.22° C | 91% | 1067.2 hPa | 1.78 mm | - | 0 W/m² | - |
| 1778047193 | 7.22° C | 90% | 1067.2 hPa | 0 mm | - | 0 W/m² | - |
| 1778046891 | 7.22° C | 89% | 1067.1 hPa | 1.27 mm | - | 0 W/m² | - |
| 1778046587 | 7.78° C | 88% | 1066.9 hPa | 1.78 mm | - | 0 W/m² | - |
| 1778046284 | 7.78° C | 87% | 1066.4 hPa | 0 mm | - | 0 W/m² | - |
| 1778045980 | 7.78° C | 87% | 1066.1 hPa | 0 mm | - | 0 W/m² | - |
| 1778045678 | 7.78° C | 85% | 1065.9 hPa | 0 mm | - | 0 W/m² | - |
| 1778045376 | 7.78° C | 84% | 1066.2 hPa | 0 mm | - | 0 W/m² | - |
| 1778045075 | 7.78° C | 84% | 1066.4 hPa | 0 mm | - | 0 W/m² | - |
| 1778044772 | 7.78° C | 84% | 1066.5 hPa | 0 mm | - | 0 W/m² | - |
| 1778044469 | 7.78° C | 84% | 1066.5 hPa | 0 mm | - | 0 W/m² | - |
| 1778044166 | 7.78° C | 83% | 1066.6 hPa | 0 mm | - | 0 W/m² | - |
| 1778043863 | 7.78° C | 83% | 1066.6 hPa | 0 mm | - | 0 W/m² | - |
| 1778043560 | 7.78° C | 83% | 1066.5 hPa | 0 mm | - | 0 W/m² | - |
| 1778043257 | 7.78° C | 83% | 1066.2 hPa | 0 mm | - | 0 W/m² | - |
| 1778042954 | 7.78° C | 83% | 1066.8 hPa | 0 mm | - | 0 W/m² | - |
| 1778042652 | 8.33° C | 83% | 1066.4 hPa | 0 mm | - | 0 W/m² | - |
| 1778042349 | 8.33° C | 83% | 1066.3 hPa | 0 mm | - | 0 W/m² | - |
| 1778042046 | 8.33° C | 83% | 1066.2 hPa | 0 mm | - | 0 W/m² | - |
| 1778041744 | 8.33° C | 84% | 1066.3 hPa | 0 mm | - | 0 W/m² | - |
* Rain latest hour (hover to see other rain measurements)
** Current wind speed in m/s (hover to see current wind gust speed)